This demonstration page uses our WeatherBlox Daily Observations layout. Learn more.

Left ArrowRight Arrow

44.8408, -93.29828

Hourly Observations for February 11, 2022

Temp ( °F °C ) Dew Point ( °F °C ) Humidity (%) Winds ( mph kmh ) Pressure ( in mb ) Visibility ( mi km ) Precip ( " mm )
12:26 am 00:26 Mostly Clear 37 2.8 32 0 82 82 W 10 17 29.34 994 10 16 0.00 0.00
12:53 am 00:53 Mostly Cloudy 37 2.8 32 0 82 82 W 10 17 29.34 994 10 16 0.00 0.00
1:32 am 01:32 Cloudy 37 2.8 32 0 82 82 W 12 19 29.35 994 10 16 0.00 0.00
1:53 am 01:53 Cloudy 37 2.8 32 0 82 82 W 12 19 29.35 994 10 16 0.00 0.00
2:22 am 02:22 Cloudy 37 2.8 31 -0.6 79 79 WNW 13 20 29.38 995 10 16 0.00 0.00
2:53 am 02:53 Cloudy 37 2.8 31 -0.6 79 79 WNW 12 19 29.37 995 10 16 0.00 0.00
3:53 am 03:53 Cloudy 36 2.2 31 -0.6 82 82 WNW 15 24 29.37 995 10 16 0.00 0.00
4:53 am 04:53 Cloudy 36 2.2 31 -0.6 82 82 W 17 28 29.39 995 10 16 0.00 0.00
5:25 am 05:25 Cloudy 36 2.2 31 -0.6 82 82 WNW 13 20 29.41 996 10 16 0.00 0.00
5:36 am 05:36 Cloudy with Light Rain 36 2.2 31 -0.6 82 82 WNW 14 22 29.41 996 10 16 0.00 0.00
5:53 am 05:53 Cloudy with Light Rain 36 2.2 31 -0.6 82 82 W 14 22 29.40 996 10 16 0.00 0.00
6:53 am 06:53 Cloudy 36 2.2 31 -0.6 82 82 WNW 12 19 29.41 996 10 16 0.00 0.00
6:56 am 06:56 Cloudy with Light Snow 36 2.2 31 -0.6 82 82 W 15 24 29.43 997 10 16 0.00 0.00
7:19 am 07:19 Cloudy with Light Rain 35 1.7 31 -0.6 85 85 NW 16 26 29.46 998 3 4 0.00 0.00
7:22 am 07:22 Cloudy with Light Rain 34 1.1 30 -1.1 85 85 NW 17 28 29.45 997 3 4 0.02 0.51
7:36 am 07:36 Windy with Snow Likely 33 0.6 29 -1.7 85 85 NW 26 43 29.47 998 3 4 0.02 0.51
7:38 am 07:38 Windy with Snow Likely 32 0 29 -1.7 88 88 NW 30 48 29.48 998 3 5 0.02 0.51
7:53 am 07:53 Windy with Snow Likely 31 -0.6 27 -2.8 85 85 NW 31 50 29.48 998 3 5 0.02 0.51
8:17 am 08:17 Windy with Snow Likely 29 -1.7 25 -3.9 85 85 NW 24 39 29.54 1000 2 3 0.00 0.00
8:31 am 08:31 Windy with Snow Likely 28 -2.2 23 -5 81 81 NW 25 41 29.56 1001 8 13 0.00 0.00
8:53 am 08:53 Windy with Snow Likely 26 -3.3 21 -6.1 81 81 NW 29 46 29.56 1001 2 3 0.00 0.00
9:04 am 09:04 Windy with Snow Likely 25 -3.9 20 -6.7 81 81 NW 20 31 29.61 1003 4 6 0.00 0.00
9:53 am 09:53 Windy with Snow Likely 22 -5.6 15 -9.4 75 75 NW 20 31 29.64 1004 9 14 0.00 0.00
10:53 am 10:53 Windy with Snow Likely 21 -6.1 14 -10 74 74 NW 21 33 29.70 1006 9 14 0.00 0.00
11:40 am 11:40 Cloudy 22 -5.6 13 -10.6 68 68 NW 24 39 29.78 1008 9 14 0.00 0.00
11:53 am 11:53 Cloudy 22 -5.6 13 -10.6 68 68 NW 24 39 29.74 1007 10 16 0.00 0.00
12:51 pm 12:51 Windy with Snow Likely 21 -6 10 -12 63 63 NW 24 39 29.83 1010 9 14 0.00 0.00
12:53 pm 12:53 Windy with Snow Likely 21 -6.1 11 -11.7 65 65 NW 23 37 29.79 1009 9 14 0.00 0.00
1:17 pm 13:17 Cloudy 20 -6.7 9 -12.8 62 62 NNW 17 28 29.86 1011 9 14 0.00 0.00
1:53 pm 13:53 Mostly Cloudy 18 -7.8 8 -13.3 65 65 NW 21 33 29.85 1011 10 16 0.00 0.00
2:53 pm 14:53 Mostly Cloudy 18 -7.8 7 -13.9 62 62 NNW 18 30 29.91 1013 10 16 0.00 0.00
3:33 pm 15:33 Mostly Cloudy 16 -8.9 4 -15.6 59 59 NNW 24 39 30.01 1016 10 16 0.00 0.00
3:53 pm 15:53 Mostly Cloudy 15 -9.4 3 -16.1 59 59 NNW 18 30 29.98 1015 10 16 0.00 0.00
4:30 pm 16:30 Mostly Cloudy 15 -9.4 2 -16.7 56 56 NNW 22 35 30.07 1018 10 16 0.00 0.00
4:53 pm 16:53 Mostly Cloudy 13 -10.6 0 -17.8 56 56 NNW 20 31 30.05 1018 10 16 0.00 0.00
5:53 pm 17:53 Mostly Cloudy 11 -11.7 -1 -18.3 58 58 N 13 20 30.12 1020 10 16 0.00 0.00
6:39 pm 18:39 Partly Cloudy 9 -12.8 -3 -19.4 58 58 NNW 17 28 30.22 1024 10 16 0.00 0.00
6:53 pm 18:53 Partly Cloudy 9 -12.8 -2 -18.9 61 61 NNW 17 28 30.18 1022 10 16 0.00 0.00
7:53 pm 19:53 Mostly Clear 8 -13.3 -3 -19.4 60 60 NNW 16 26 30.24 1024 10 16 0.00 0.00
8:53 pm 20:53 Partly Cloudy 7 -13.9 -4 -20 60 60 N 17 28 30.29 1026 10 16 0.00 0.00
9:53 pm 21:53 Mostly Clear 6 -14.4 -5 -20.6 60 60 NNW 12 19 30.33 1027 10 16 0.00 0.00
10:53 pm 22:53 Mostly Clear 5 -15 -6 -21.1 60 60 N 20 31 30.37 1028 10 16 0.00 0.00
11:53 pm 23:53 Mostly Clear 3 -16.1 -6 -21.1 66 66 NNW 10 17 30.40 1029 10 16 0.00 0.00

Powered by AerisWeather